Tyler, TX

8:39 AM CDT on May 24, 2017 (GMT -0500)
Tyler Pounds

Weather History for KTYR - September, 2013

Change the Weather History Date:

Thursday, September 19, 2013

  Actual Average Record
Temperature  
Mean Temperature 86 °F 75 °F  
Max Temperature 96 °F 85 °F 99 °F (1941)
Min Temperature 76 °F 65 °F 40 °F (1901)
Degree Days  
Heating Degree Days 0 0  
Month to date heating degree days 0 0  
Since 1 July heating degree days 0 0  
Cooling Degree Days 21 10  
Month to date cooling degree days 384 247  
Year to date cooling degree days 2500 2169  
Growing Degree Days 34 (Base 50)    
Moisture  
Dew Point 69 °F    
Average Humidity 61    
Maximum Humidity 82    
Minimum Humidity 39    
Precipitation  
Precipitation 0.01 in 0.09 in 2.64 in (2002)
Month to date precipitation 0.18 2.17  
Year to date precipitation 19.79 31.43  
Snow  
Snow 0.00 in - - ()
Month to date snowfall 0.0  
Since 1 July snowfall 0.0  
Since 1 September snowfall 0.0  
Snow Depth 0.00 in    
Sea Level Pressure  
Sea Level Pressure 29.94 in    
Wind  
Wind Speed 7 mph (SSE)    
Max Wind Speed 23 mph    
Max Gust Speed 33 mph    
Visibility 10 miles    
Events Rain    
T = Trace of Precipitation, MM = Missing Value Source: NWS Daily Summary

Daily Weather History Graph

Daily Weather History Graph

Search for Another Location

Airport or City:

Trip Planner

Search our weather history database for the weather conditions in past years. The results will help you decide how hot, cold, wet, or windy it might be!

Date:

Astronomy

Sep. 19, 2013 Rise Set
Actual Time 7:08 AM CDT 7:21 PM CDT
Civil Twilight 6:43 AM CDT 7:46 PM CDT
Nautical Twilight 6:14 AM CDT 8:15 PM CDT
Astronomical Twilight 5:45 AM CDT 8:43 PM CDT
Moon 7:25 PM CDT (9/19) 7:15 AM CDT (9/19)
Length of Visible Light 13h 02m
Length of Day
12h 13m
Full, 100% of the Moon is Illuminated
Sep 19
Full
Sep 26
Last Quarter
Oct 4
New
Oct 11
First Quarter
Oct 18
Full

Hourly Weather History & Observations

Time (CDT) Temp. Heat Index Dew Point Humidity Pressure Visibility Wind Dir Wind Speed Gust Speed Precip Events Conditions
12:53 AM 79.0 °F - 64.9 °F 62% 29.95 in 10.0 mi South 5.8 mph - N/A   Clear
1:53 AM 79.0 °F - 66.0 °F 64% 29.96 in 10.0 mi South 5.8 mph - N/A   Clear
2:53 AM 78.1 °F - 66.9 °F 68% 29.95 in 10.0 mi South 6.9 mph - N/A   Clear
3:53 AM 77.0 °F - 68.0 °F 74% 29.95 in 10.0 mi South 5.8 mph - N/A   Clear
4:53 AM 75.9 °F - 68.0 °F 76% 29.95 in 10.0 mi SE 5.8 mph - N/A   Clear
5:22 AM 77.0 °F - 69.8 °F 78% 29.97 in 10.0 mi SSE 5.8 mph - N/A   Mostly Cloudy
5:53 AM 77.0 °F - 69.1 °F 76% 29.96 in 10.0 mi SSE 4.6 mph - N/A   Overcast
6:31 AM 75.2 °F - 69.8 °F 83% 29.99 in 10.0 mi SE 4.6 mph - N/A   Scattered Clouds
6:53 AM 75.9 °F - 69.1 °F 79% 29.97 in 10.0 mi SSE 3.5 mph - N/A   Clear
7:53 AM 77.0 °F - 70.0 °F 79% 29.98 in 10.0 mi SE 8.1 mph - N/A   Clear
8:53 AM 80.1 °F 83.2 °F 70.0 °F 71% 29.99 in 10.0 mi SE 13.8 mph - N/A   Clear
9:53 AM 82.9 °F 87.5 °F 71.1 °F 67% 30.00 in 10.0 mi SSE 10.4 mph - N/A   Clear
10:53 AM 84.9 °F 89.4 °F 70.0 °F 61% 30.01 in 10.0 mi South 8.1 mph - N/A   Partly Cloudy
11:53 AM 87.1 °F 91.3 °F 69.1 °F 55% 30.00 in 10.0 mi SSE 8.1 mph - N/A   Clear
12:53 PM 91.9 °F 95.4 °F 66.9 °F 44% 29.98 in 10.0 mi SE 8.1 mph 17.3 mph N/A   Mostly Cloudy
1:53 PM 91.9 °F 94.5 °F 66.0 °F 42% 29.94 in 10.0 mi East 6.9 mph 17.3 mph N/A   Partly Cloudy
2:53 PM 93.9 °F 95.6 °F 64.0 °F 37% 29.90 in 10.0 mi ESE 10.4 mph - N/A   Scattered Clouds
3:53 PM 93.0 °F 94.6 °F 64.0 °F 38% 29.87 in 10.0 mi SE 10.4 mph - N/A   Scattered Clouds
4:35 PM 78.8 °F - 71.6 °F 78% 29.90 in 10.0 mi SW 15.0 mph 28.8 mph 0.00 in Rain Light Rain
4:53 PM 80.1 °F 83.8 °F 72.0 °F 76% 29.88 in 10.0 mi South 9.2 mph - 0.00 in Rain Light Rain
5:53 PM 82.0 °F 86.3 °F 71.1 °F 69% 29.90 in 10.0 mi ESE 6.9 mph - 0.01 in   Mostly Cloudy
6:53 PM 81.0 °F 84.4 °F 70.0 °F 69% 29.89 in 10.0 mi ENE 5.8 mph - N/A   Mostly Cloudy
7:53 PM 80.1 °F 83.2 °F 70.0 °F 71% 29.91 in 10.0 mi SSE 10.4 mph - N/A   Clear
8:53 PM 79.0 °F - 70.0 °F 74% 29.92 in 10.0 mi SSE 5.8 mph - N/A   Clear
9:53 PM 78.1 °F - 70.0 °F 76% 29.92 in 10.0 mi SSE 6.9 mph - N/A   Clear
10:53 PM 77.0 °F - 70.0 °F 79% 29.93 in 10.0 mi SSE 5.8 mph - N/A   Clear
11:53 PM 77.0 °F - 71.1 °F 82% 29.93 in 10.0 mi SE 3.5 mph - N/A   Mostly Cloudy